User: anonymous   Login
Location: Newark
(45.8667°N, 9.7333°E)
Time: 18:11:09
(UTC+00:00)
Language:

NOAA 18 - Orbit

View from above orbital plane
View from above orbital plane
View from above satellite
View from above satellite

Ground track
Ground track

The orbit data is extracted from the following two-line orbital elements,

1 28654U 05018A   21057.87921458  .00000110  00000-0  84173-4 0  9997
2 28654  99.0087 122.2390 0013619 231.1589 128.8367 14.12584490812833
Epoch (UTC): 26 February 2021 21:06:04
Eccentricity: 0.0013619
inclination: 99.0087°
perigee height: 840 km
apogee height: 860 km
right ascension of ascending node: 122.2390°
argument of perigee: 231.1589°
revolutions per day: 14.12584490
mean anomaly at epoch: 128.8367°
orbit number at epoch: 81283

The dashed part of the orbit path shows where the satellite is in the earth's shadow,  

DLR